Location: Oakhurst
(33.6448°N, 111.9543°W)
Time: 07:13:41
(UTC+00:00)

DUCHIFAT 1 - Visible Passes

Search period start: 29 July 2021 00:00
Search period end: 08 August 2021 00:00
Orbit: 584 x 603 km, 98.0° (Epoch: 28 July)

Date Brightness Start Highest point End Pass type
(mag) Time Alt. Az. Time Alt. Az. Time Alt. Az.
29 Jul ? 08:37:07 10° NE 08:37:56 14° NE 08:37:56 14° NE visible
29 Jul ? 10:12:50 10° NNW 10:14:33 18° NW 10:14:33 18° NW visible
30 Jul ? 08:45:56 10° NNE 08:47:05 17° NE 08:47:05 17° NE visible
30 Jul ? 10:22:19 10° NNW 10:23:41 15° NW 10:23:41 15° NW visible
31 Jul ? 08:54:51 10° NNE 08:56:13 19° NE 08:56:13 19° NE visible
31 Jul ? 10:32:01 10° NW 10:32:49 12° NW 10:32:49 12° NW visible
01 Aug ? 09:03:49 10° NNE 09:05:20 21° NNE 09:05:20 21° NNE visible
02 Aug ? 09:12:49 10° NNE 09:14:28 23° NNE 09:14:28 23° NNE visible
03 Aug ? 09:21:53 10° N 09:23:35 24° N 09:23:35 24° N visible
04 Aug ? 09:31:00 10° N 09:32:43 24° N 09:32:43 24° N visible
05 Aug ? 09:40:09 10° N 09:41:50 23° N 09:41:50 23° N visible
06 Aug ? 09:49:21 10° N 09:50:57 21° NNW 09:50:57 21° NNW visible
07 Aug ? 09:58:36 10° N 10:00:04 19° NNW 10:00:04 19° NNW visible
